Benton Harbor, MI

2:09 AM EST on February 10, 2016 (GMT -0500)
Southwest Michigan Regional

Weather History for KBEH - October, 2013

Change the Weather History Date:

Tuesday, October 8, 2013

  Actual Average Record
Temperature  
Mean Temperature 58 °F -  
Max Temperature 72 °F 63 °F 86 °F (2007)
Min Temperature 44 °F 43 °F 23 °F (1989)
Degree Days  
Heating Degree Days 7    
Growing Degree Days 8 (Base 50)    
Moisture  
Dew Point 47 °F    
Average Humidity 72    
Maximum Humidity 96    
Minimum Humidity 39    
Precipitation  
Precipitation 0.00 in - - ()
Sea Level Pressure  
Sea Level Pressure 30.18 in    
Wind  
Wind Speed 5 mph (SE)    
Max Wind Speed 10 mph    
Max Gust Speed -    
Visibility 10 miles    
Events      
Averages and records for this station are not official NWS values.
T = Trace of Precipitation, MM = Missing Value Source: NWS Daily Summary

Daily Weather History Graph

Daily Weather History Graph

Search for Another Location

Airport or City:

Trip Planner

Search our weather history database for the weather conditions in past years. The results will help you decide how hot, cold, wet, or windy it might be!

Date:

Astronomy

Oct. 08, 2013 Rise Set
Actual Time 7:50 AM EDT 7:14 PM EDT
Civil Twilight 7:22 AM EDT 7:42 PM EDT
Nautical Twilight 6:50 AM EDT 8:15 PM EDT
Astronomical Twilight 6:17 AM EDT 8:47 PM EDT
Moon 11:48 AM EDT (10/8) 9:47 PM EDT (10/8)
Length of Visible Light 12h 20m
Length of Day
11h 24m
Waxing Crescent, 16% of the Moon is Illuminated
Oct 8
Waxing Crescent
Oct 11
First Quarter
Oct 18
Full
Oct 26
Last Quarter
Nov 3
New

Hourly Weather History & Observations

Time (EDT) Temp. Windchill Dew Point Humidity Pressure Visibility Wind Dir Wind Speed Gust Speed Precip Events Conditions
12:53 AM 44.1 °F 42.5 °F 43.0 °F 96% 30.12 in 10.0 mi East 3.5 mph - N/A   Clear
1:53 AM 46.9 °F - 44.1 °F 90% 30.13 in 10.0 mi ESE 4.6 mph - N/A   Clear
2:53 AM 46.9 °F - 43.0 °F 86% 30.14 in 10.0 mi SE 5.8 mph - N/A   Clear
3:53 AM 46.9 °F - 43.0 °F 86% 30.14 in 10.0 mi SE 6.9 mph - N/A   Clear
4:53 AM 46.9 °F - 43.0 °F 86% 30.14 in 10.0 mi SE 6.9 mph - N/A   Clear
5:53 AM 48.0 °F - 43.0 °F 83% 30.15 in 10.0 mi SE 6.9 mph - N/A   Clear
6:53 AM 46.9 °F - 43.0 °F 86% 30.17 in 10.0 mi SE 5.8 mph - N/A   Clear
7:53 AM 46.0 °F 43.1 °F 43.0 °F 89% 30.19 in 10.0 mi SE 5.8 mph - N/A   Clear
8:53 AM 48.9 °F - 45.0 °F 86% 30.21 in 10.0 mi SSE 4.6 mph - N/A   Clear
9:53 AM 52.0 °F - 46.9 °F 83% 30.22 in 10.0 mi SSE 9.2 mph - N/A   Clear
10:53 AM 57.0 °F - 48.9 °F 74% 30.22 in 10.0 mi South 6.9 mph - N/A   Clear
11:53 AM 61.0 °F - 50.0 °F 67% 30.22 in 10.0 mi South 5.8 mph - N/A   Clear
12:53 PM 64.9 °F - 51.1 °F 61% 30.22 in 10.0 mi South 10.4 mph - N/A   Clear
1:53 PM 68.0 °F - 51.1 °F 55% 30.19 in 10.0 mi SSW 6.9 mph - N/A   Clear
2:53 PM 70.0 °F - 51.1 °F 51% 30.18 in 10.0 mi Variable 5.8 mph - N/A   Clear
3:53 PM 71.1 °F - 48.0 °F 44% 30.18 in 10.0 mi SSW 6.9 mph - N/A   Clear
4:53 PM 72.0 °F - 46.0 °F 40% 30.17 in 10.0 mi Variable 3.5 mph - N/A   Clear
5:53 PM 71.1 °F - 45.0 °F 39% 30.17 in 10.0 mi South 5.8 mph - N/A   Clear
6:53 PM 68.0 °F - 46.9 °F 47% 30.17 in 10.0 mi Calm Calm - N/A   Clear
7:53 PM 55.9 °F - 50.0 °F 80% 30.19 in 10.0 mi Calm Calm - N/A   Clear
8:53 PM 54.0 °F - 51.1 °F 90% 30.19 in 10.0 mi ESE 4.6 mph - N/A   Clear
9:53 PM 57.0 °F - 48.9 °F 74% 30.21 in 10.0 mi SE 5.8 mph - N/A   Clear
10:53 PM 57.0 °F - 48.0 °F 72% 30.21 in 10.0 mi SE 6.9 mph - N/A   Clear
11:53 PM 55.0 °F - 46.9 °F 74% 30.21 in 10.0 mi SE 5.8 mph - N/A   Clear